User: anonymous   Login
Location: Unspecified
(0.0000°N, 0.0000°E)
Time: 05:25:22
(UTC+00:00)
Language:

DELFI-N3XT - Orbit

View from above orbital plane
View from above orbital plane
View from above satellite
View from above satellite

Ground track
Ground track

The orbit data is extracted from the following two-line orbital elements,

1 39420U 13066E   18267.45698642 +.00000198 +00000-0 +43302-4 0  9996
2 39420 097.6878 244.1213 0137638 350.7411 009.1257 14.62094806258202
Epoch (UTC): 24 September 2018 10:58:03
Eccentricity: 0.0137638
inclination: 97.6878°
perigee height: 589 km
apogee height: 783 km
right ascension of ascending node: 244.1213°
argument of perigee: 350.7411°
revolutions per day: 14.62094806
mean anomaly at epoch: 9.1257°
orbit number at epoch: 25820

The dashed part of the orbit path shows where the satellite is in the earth's shadow,  

DLR